Location: Berg
(48.4333°N, 13.9167°E)
Time: 03:16:12
(UTC+00:00)

CZ-2C R/B - Pass Details

Date: 18 September 2020
Orbit: 785 x 870 km, 98.2° (Epoch: 24 October)

Event Time Altitude Azimuth Distance (km) Brightness Sun altitude
Rises 17:35:57 0° 26° (NNE) 3,415 5.7 -5.1°
Reaches altitude 10° 17:38:56 10° 42° (NE) 2,488 4.8 -5.6°
Maximum altitude 17:43:01 21° 90° (E) 1,851 3.9 -6.3°
Drops below altitude 10° 17:47:07 10° 137° (SE) 2,503 4.7 -7.0°
Sets 17:50:07 0° 154° (SSE) 3,441 5.5 -7.4°
